This is the latest recevied weather packets stored in our database for station/object SQ9RHX-13. If no packets are shown the sender has not sent any weather packets the latest 10 day(s).
| Time | Temp. | Humidity | Pressure | Rain* | Wind** | Luminosity | Snow |
|---|---|---|---|---|---|---|---|
| 1777708504 | 20.56° C | 40% | 1029.1 hPa | 0 mm | - | 461 W/m² | - |
| 1777708204 | 20.56° C | 40% | 1029.1 hPa | 0 mm | - | 445 W/m² | - |
| 1777707903 | 20.56° C | 42% | 1029 hPa | 0 mm | - | 433 W/m² | - |
| 1777707604 | 20.56° C | 42% | 1029.1 hPa | 0 mm | - | 425 W/m² | - |
| 1777707303 | 20° C | 45% | 1029.1 hPa | 0 mm | - | 411 W/m² | - |
| 1777707006 | 20° C | 44% | 1028.9 hPa | 0 mm | - | 400 W/m² | - |
| 1777706703 | 20° C | 43% | 1028.9 hPa | 0 mm | - | 389 W/m² | - |
| 1777706403 | 19.44° C | 46% | 1029.3 hPa | 0 mm | - | 376 W/m² | - |
| 1777706103 | 18.89° C | 48% | 1029 hPa | 0 mm | - | 362 W/m² | - |
| 1777705803 | 18.89° C | 46% | 1029.1 hPa | 0 mm | - | 349 W/m² | - |
| 1777705504 | 18.89° C | 48% | 1029.1 hPa | 0 mm | - | 335 W/m² | - |
| 1777705203 | 18.33° C | 49% | 1029.2 hPa | 0 mm | - | 323 W/m² | - |
| 1777704902 | 17.78° C | 51% | 1029.1 hPa | 0 mm | - | 362 W/m² | - |
| 1777704604 | 17.22° C | 50% | 1029 hPa | 0 mm | - | 297 W/m² | - |
| 1777704303 | 17.22° C | 52% | 1029.1 hPa | 0 mm | - | 277 W/m² | - |
| 1777704003 | 16.67° C | 53% | 1029.2 hPa | 0 mm | - | 50 W/m² | - |
| 1777703705 | 16.11° C | 55% | 1029.2 hPa | 0 mm | - | 261 W/m² | - |
| 1777703403 | 16.11° C | 55% | 1029.2 hPa | 0 mm | - | 242 W/m² | - |
| 1777703105 | 16.67° C | 57% | 1029.1 hPa | 0 mm | - | 237 W/m² | - |
| 1777702803 | 16.67° C | 56% | 1029.2 hPa | 0 mm | - | 225 W/m² | - |
| 1777702504 | 15.56° C | 58% | 1029.2 hPa | 0 mm | - | 213 W/m² | - |
| 1777702202 | 15° C | 62% | 1029.1 hPa | 0 mm | - | 201 W/m² | - |
| 1777701903 | 14.44° C | 63% | 1029.1 hPa | 0 mm | - | 192 W/m² | - |
| 1777701604 | 14.44° C | 62% | 1029.3 hPa | 0 mm | - | 175 W/m² | - |
| 1777701305 | 14.44° C | 61% | 1029.2 hPa | 0 mm | - | 146 W/m² | - |
* Rain latest hour (hover to see other rain measurements)
** Current wind speed in m/s (hover to see current wind gust speed)